Regional Weather Roundup
Issued by NWS

Home | Current Version | Previous Version | Graphics & Text | Print | Product List | Glossary On
Versions: 1 2 3 4 5 6 7 8 9 10 11 12 13 14 15 16 17 18 19 20 21 22 23 24 25 26 27 28 29 30 31 32 33 34 35 36 37 38 39 40 41 42 43 44 45 46 47 48 49 50
447
ASUS43 KMPX 200810
RWRMN
WEATHER ROUNDUP FOR MINNESOTA
NATIONAL WEATHER SERVICE TWIN CITIES/CHANHASSEN MN
200 AM CST MON FEB 20 2017


NOTE: "FAIR" INDICATES FEW OR NO CLOUDS BELOW 12,000 FEET WITH NO
SIGNIFICANT WEATHER AND/OR OBSTRUCTIONS TO VISIBILITY. N/A MEANS
CURRENT SKY AND/OR WEATHER CONDITIONS ARE NOT AVAILABLE.

MNZ060>063-068>070-200900-
   Twin Cities Metro

CITY           SKY/WX    TMP DP  RH WIND       PRES   REMARKS
TWIN CITIES    CLOUDY    48  40  73 SE12      29.86F
ST PAUL        CLOUDY    49  41  74 SE13      29.88F
CRYSTAL        MOCLDY    65  40  39 SE13      29.84F
BLAINE         CLOUDY    52  43  71 SE12      29.85F
LAKEVILLE      CLOUDY    46  43  87 CALM      29.86F
EDEN PRAIRIE   CLOUDY    53  43  68 SE14      29.83F
SOUTH ST PAUL  CLOUDY    49  39  68 SE3       29.87F
LAKE ELMO      FAIR      52  41  66 SE8       29.90S
$$
MNZ001>005-007-008-013>017-022>024-027-028-200900-
   Northwest Minnesota

CITY           SKY/WX    TMP DP  RH WIND       PRES   REMARKS
BEMIDJI        PTCLDY    39  33  79 SE13      29.73S
HALLOCK        CLOUDY    39  37  93 SE16      29.59S
ROSEAU         CLOUDY    43  36  75 SE14      29.66F
WARROAD        CLOUDY    43  36  75 SE14G20   29.69F
THIEF RVR FALL CLOUDY    40  37  89 SE14      29.64F
CROOKSTON      CLOUDY    43  41  93 SE14      29.61F
FOSSTON        CLOUDY    45  39  81 SE13      29.66F
DETROIT LAKES  LGT RAIN  45  41  87 SE13      29.69S
MOORHEAD       CLOUDY    52  46  82 S23       29.62F
PARK RAPIDS    CLOUDY    47  39  74 SE10      29.72S
MAHNOMEN       PTSUNNY   49  44  84 SE16      29.65F
$$
MNZ006-009>011-018-025>026-200900-
   North Central Minnesota

CITY           SKY/WX    TMP DP  RH WIND       PRES   REMARKS
BAUDETTE       CLEAR     40  30  67 SE12      29.72F
FLAG ISLAND    CLOUDY    39  30  70 SE8       29.71F
INTL FALLS     CLOUDY    40  29  64 SE14      29.80F
WASKISH        CLOUDY    43  34  70 SE15      29.73F
BIG FORK       CLOUDY    43  32  65 SE8G20    29.80F
LONGVILLE      MOCLDY    41  34  75 SE8       29.78F
GRAND RAPIDS   CLOUDY    39  31  72 SE9       29.84F
CRANE LAKE     CLOUDY    36  28  75 CALM      29.89F
ORR            CLEAR     41  27  56 SE8G16    29.83F
COOK           CLOUDY    41  30  65 SE6       29.87F
WALKER         FAIR      41  34  76 SE7       29.75F
$$
MNZ012-019>021-037-200900-
   Northeast Minnesota

CITY           SKY/WX    TMP DP  RH WIND       PRES   REMARKS
DULUTH         PTCLDY    39  31  72 SE15      29.93S
ELY            CLEAR     37  28  70 SE10      29.92F
HIBBING        CLOUDY    38  30  73 SE6       29.88S
EVELETH        CLOUDY    42  29  58 E3        29.90F
DULUTH HARBOR  CLOUDY    36  34  93 E14       29.98S
TWO HARBORS    CLOUDY    39  32  75 NE7       29.95S
SILVER BAY     CLOUDY    36  32  87 NE8       29.98S
GRAND MARAIS     N/A     39  30  70 NE14G22   30.05F
G MARAIS ARPRT CLOUDY    34  25  69 E12       30.02F WCI  25
$$
MNZ029>031-032-039>041-046>048-054>057-064-200900-
   West Central Minnesota

CITY           SKY/WX    TMP DP  RH WIND       PRES   REMARKS
FERGUS FALLS   RAIN      52  48  87 SE15      29.70F
WHEATON        CLOUDY    52  46  82 SE18      29.65F
MORRIS         CLOUDY    52  48  87 SE14      29.68S
ALEXANDRIA     CLOUDY    51  48  89 SE10      29.72F
ELBOW LAKE     MOCLDY    51  48  90 S15G21    29.68F
WADENA         CLOUDY    45  41  87 SE9       29.73F
GLENWOOD       TSTM      52  48  87 S17G23    29.72F
APPLETON       CLOUDY    54  46  76 SE12G17   29.68S
BENSON         CLOUDY    55  45  67 S15G21    29.71F
ORTONVILLE     MOCLDY    48  45  87 SE12      29.67S
WILLMAR        FAIR      52  46  82 SE12      29.76S
$$
MNZ033>034-036-042>043-049>051-058-059-200900-
   Central Minnesota

CITY           SKY/WX    TMP DP  RH WIND       PRES   REMARKS
ST CLOUD       CLOUDY    49  43  80 SE10      29.78F
SAUK CENTRE    TSTM      47  45  90 E7        29.74F
PAYNESVILLE    CLOUDY    51  45  78 SE15      29.76F
AITKIN         CLOUDY    45  32  61 SE9       29.81F
PINE RIVER     PTCLDY    39  34  81 E8        29.82R
BRAINERD       CLOUDY    44  36  73 SE7       29.78F
STAPLES        CLOUDY    46  41  81 SE8       29.74F
LONG PRAIRIE   CLOUDY    46  43  87 E9        29.75F
LITTLE FALLS   CLOUDY    46  39  76 SE10      29.77F
LITCHFIELD     CLOUDY    52  46  82 S8        29.77F
BUFFALO        CLOUDY    54  44  67 SE14G21   29.80F
MAPLE LAKE     CLOUDY    52  46  77 S10G17    29.80F
HUTCHINSON     CLOUDY    50  46  85 SE8       29.79F
$$
MNZ037-044-045-052-053-200900-
   East Central Minnesota

CITY           SKY/WX    TMP DP  RH WIND       PRES   REMARKS
PRINCETON      CLOUDY    54  43  66 SE9       29.81F
MORA           CLOUDY    43  36  75 E7        29.86F
CAMBRIDGE      MOCLDY    55  41  58 SE7       29.82F
RUSH CITY      MOCLDY    48  37  66 SE9       29.86F
MOOSE LAKE     CLOUDY    34  32  93 NE5       29.89F WCI  30
HINCKLEY       FAIR      45  36  70 E6        29.88F
CLOQUET        PTCLDY    36  30  80 E6        29.92S
MCGREGOR       MOCLDY    37  32  81 E13       29.85F
$$
MNZ071>073-080-081-089-090-097-098-200900-
   Southwest Minnesota

CITY           SKY/WX    TMP DP  RH WIND       PRES   REMARKS
MONTEVIDEO     CLOUDY    54  48  82 S13G22    29.72F
GRANITE FALLS  CLOUDY    55  49  82 SE15G22   29.74S
CANBY          CLOUDY    55  50  83 E9        29.68F
MARSHALL       CLOUDY    53  49  86 SE16      29.70F
REDWOOD FALLS  CLOUDY    52  46  80 S17       29.74F
OLIVIA         CLOUDY    52  46  82 S17       29.74F
PIPESTONE      CLOUDY    52  46  82 S18       29.70F
WINDOM         CLOUDY    52  46  82 S12G18    29.78S
WORTHINGTON    CLOUDY    52  49  89 S14       29.76F
JACKSON        CLOUDY    50  45  81 S12G17    29.79F
TRACY          CLOUDY    52  48  88 S15G23    29.72F
SLAYTON        CLOUDY    52  50  92 S15G21    29.74F
$$
MNZ065>067-074>077-082>085-091>093-200900-
   South Central Minnesota

CITY           SKY/WX    TMP DP  RH WIND       PRES   REMARKS
MANKATO          N/A     50  44  80 SE12      29.84S
NEW ULM        MOCLDY    54  45  71 S13       29.79F
ST JAMES       CLOUDY    52  46  82 SE13      29.80F
FAIRMONT       CLOUDY    50  45  83 S17       29.81F
GLENCOE        CLOUDY    54  48  82 SE9G18    29.80S
FARIBAULT      CLOUDY    54  45  71 SE9       29.87S
OWATONNA       CLOUDY    52  43  71 SE18G25   29.87F
WASECA         CLOUDY    50  43  76 SE14      29.87S
ALBERT LEA     MOCLDY    48  43  81 S12       29.87S
$$
MNZ078>079-086>088-094>096-200900-
   Southeast Minnesota

CITY           SKY/WX    TMP DP  RH WIND       PRES   REMARKS
ROCHESTER      CLOUDY    46  41  82 SE14      29.92S
RED WING       CLOUDY    52  39  62 SE8       29.90F
STANTON        CLOUDY    53  44  71 S14G22    29.85S
DODGE CENTER   CLOUDY    43  39  87 SE13      29.90S
WINONA         PTCLDY    45  36  70 CALM      29.96S
AUSTIN         PTCLDY    48  43  81 SE8       29.90S
PRESTON        PTCLDY    49  40  73 SE8       29.94S
$$
ABBREVIATIONS USED IN REMARKS
   TC - TEMPERATURES IN CELSIUS
  WCI - WIND CHILL INDEX
   HX - HEAT INDEX
  VSB - VISIBILITY
$$




USA.gov is the U.S. government's official web portal to all federal, state and local government web resources and services.